Airfield :
LOGIN :

Register | Disclaimer

   EN    FR    IT 

 










Legend :    VFR   Marginal VFR   IFR   Intensive IFR   Very Intensive IFR
Visi :
Ceiling :
>= 8 km
>= 3000ft
5 to 8 km
1000 to 3000 ft
1500m to 5 km
500 to 1000 ft
800 to 1500m
200 to 500 ft
< 800m
< 200 ft
Symbols :   Thunderstorms  Fog  Heavy snow  Heavy precipitations  Wind > 20 kt
SIGMETs :     Misc.  Thunderstorms  Icing  Turbulence  Mountain Waves  Volcanic Ashes







- Airport Elevation : 119 ft
- IATA code : WAT


EIWF - Waterford

CURRENT METAR :
  • 170730Z 24008KT 200V300 9999 BKN010 15/15 Q1008 R21/1/////

TAF TAF EIWF
Valid from the 17 at 06:00 until the 17 at 15:00 UTC


170500Z 1706/1715 25007KT 9999 SCT012 SCT020
TEMPO 1706/1707 3000 BR BKN004
BECMG 1706/1709 20012KT
BECMG 1710/1712 22017KT
TEMPO 1710/1712 4000 -SHRA BKN007 SCT018CB
TEMPO 1712/1715 23018G30KT
ATIS : +353 51 877 000
No reported NOTAMs for that airfield.



MET'MAP, your aeronautical weather chart ! - Copyright ORBIFLY December 2007 - Disclaimer

ORBIFLY MET'MAP TEAM :

Programming & Development : Alexandra Zaïnal
Concept & Development : Baudouin d'Aumeries
Co-Development & Prog : Marc-Olivier Méhu
Technical & hardware support : Manuel Goepfert

Contact : metmap@orbifly.com




SOURCES & CREDITS :

   NOAA